Dean International
Flight School

Career Spotlight

Mika

Mika

Congratulations to Mika from Khazakstan. She recently sent us this photo of her flying an Airbus airliner.

More...
Mika's Success Story
close

Congratulations to Mika from Khazakstan. She recently sent us this photo of her flying an Airbus airliner.

Mario

Mario

My dreams could not have been realized if I wouldn't have been part of the Dean International family.

More...
Mario's Success Story
close

"My dreams could not have been realized if I wouldn't have been part of the Dean International family. Thank you Robert, thanks to all my co-workers, and thanks to all of my students!"

Fernando

Fernando

I am now working as a First Officer at TACA and am enjoying every moment of it.

More...
Fernando's Success Story
close

"Will never forget my time of flight training at Dean International. I am now working as a First Officer at TACA and am enjoying every moment of it."

Alvaro

Alvaro

Because of the flight time I was able to built while instructing, I got the experience needed to apply to an airline in Colombia.

More...
Alvaro's Success Story
close

Dean alumnus Alvaro Londoño currently flies with Tampa Cargo. He says of his experience at Dean: "I want to take this opportunity to thank you for giving me the chance to build my experience and expand my knowledge in Dean International. Because of the flight time I was able to built flight instructing, I got the experience needed to apply to an airline in Colombia."

Ralph

Ralph

Every Aruban student of Dean International has made it into Tiara Air Aruba, that is very nice.

More...
Ralph's Success Story
close

"Next to me is my Co-Pilot, Elison. This picture was taken on our first flight together, which was almost exactly 5 years after I finished at Dean International. [...] Every Aruban student of Dean International has made it into Tiara Air Aruba. [...] The future looks bright here in Aruba."

Rohaan

Rohaan

The [..] staff will all work diligently to help you finish your certificates as safely and efficiently as possible.

More...
Rohaan's Success Story
close

After receiving very hard times from other flight schools [...], I came to Dean International where Robert Dean personally sat down with me and gave me a financial and chronological look into how much remained to finish my private pilot certificate. Through his hard efforts as an instructor and mentor, I was able to finish my private pilot certificate within one week.

Welcome to Dean International

In over two decades, Dean International has educated over 7,000 pilots from all over the world, including over 1,000 students from India alone. By offering a great training experience, a friendly service staff, an ample variety of aircraft, and by improving constantly, we have become one of the largest, most prestigious FAA 141-approved flight schools in North America. Located in Miami, Florida, USA, our flight school offers an ideal location for year-round, "learn to fly" weather, flight training. Dean International is not only well-equipped to provide services to professional trainees but also caters to General Aviation renters. Visit or contact our headquarters at Kendall-Tamiami Executive Airport located in Miami, FL today to learn more about us, or simply read more about our programs if you are an international student interested in joining our school.

Local Airport Information
TAF FOR KTMB (Issued: Sun, April 20th 2014 9:06 PM UTC)
TAF
      AMD KTMB 202105Z 2021/2118 34007KT P6SM SCT040
      FM210100 35008KT P6SM SCT030
      FM211500 02005KT P6SM FEW035
     
METAR FOR KTMB (Issued: Sun, April 20th 2014 10:53 PM UTC):
KTMB 202253Z 01008KT 10SM OVC048 24/14 A2999 RMK AO2 SLP155 T02440139

This weather information is provided by the National Weather Service.
It is automatically refreshed every three minutes.
TAF FOR KHST (Issued: Sun, April 20th 2014 4:14 PM UTC)
TAF KHST 2016/2122 31010KT 9999 SCT040 QNH3000INS
      BECMG 2101/2102 10006KT 9999 BKN030 QNH3005INS
      BECMG 2114/2115 09010KT 9999 SCT040 QNH3000INS TX30/2021Z TN18/2112Z
     
METAR FOR KHST (Issued: Sun, April 20th 2014 10:58 PM UTC):
KHST 202258Z AUTO 31007KT 10SM FEW048 26/16 A2999 RMK AO2 SLP159 T02550156

This weather information is provided by the National Weather Service.
It is automatically refreshed every three minutes.
TAF FOR KOPF (Issued: Sun, April 20th 2014 9:06 PM UTC)
TAF
      AMD KOPF 202103Z 2021/2118 02008KT P6SM SCT040
      FM210100 34006KT P6SM SCT030
      FM211500 02007KT P6SM SCT035
     
METAR FOR KOPF (Issued: Sun, April 20th 2014 10:53 PM UTC):
KOPF 202253Z 32009KT 10SM SCT044 24/13 A2999 RMK AO2 SLP156 T02440133

This weather information is provided by the National Weather Service.
It is automatically refreshed every three minutes.
TAF FOR KMIA (Issued: Sun, April 20th 2014 9:06 PM UTC)
TAF
      AMD KMIA 202101Z 2021/2118 31007KT P6SM BKN040 BKN250
      FM210100 35005KT P6SM SCT030
      FM211500 01007KT P6SM SCT035
     
METAR FOR KMIA (Issued: Sun, April 20th 2014 10:53 PM UTC):
KMIA 202253Z VRB06KT 10SM SCT047 SCT250 25/14 A2999 RMK AO2 SLP155 T02500144 $

This weather information is provided by the National Weather Service.
It is automatically refreshed every three minutes.
Design by Ariel Llizo
© Dean International Inc. 2012